Погода в Каблуково

Россия / Ярославская область     57°15′38″N   38°30′20″E
В апреле 2022 года жителям России запретили посещать сайт meteo.paraplan.net по решению Генеральной прокуратуры. Аудитория сайта уменьшилась в 10 раз. Владельцы сайта не видят смысла в поддержке погодного сервера в таких условиях. Сайт будет закрыт в октябре.
темп.,
°C
ветер,
м/с
пор.,
м/с
влажн.,
%
обл.,
%
осадки,
мм/ч
давл.,
гПа
погр.,
м
4 октября, вт
вт400:00+9ююв7167962 0.1 10041476
03:00+10ююв61484100 0.2 10051188
06:00+10юв61484100 0.0 10071259
09:00+10юв61484100 0.1 10071389
12:00+11юв61672100 0.1 10081894
15:00+13ююв71572100 0.6 10082056
18:00+9ю51679100 0.8 10101373
21:00+8юв3886100 1.3 1010543
5 октября, ср
ср500:00+8ююв41086100 0.1 1010760
03:00+7ю4985100 0.3 1010904
06:00+6ю4787100 0.1 1010847
09:00+7ю258398 0.1 1011553
12:00+7ююв128899 0.2 1012287
15:00+7зюз1289100 0.4 1013205
18:00+6з149196 0.9 1014385
21:00+4з259645 1.0 1014206
6 октября, чт
чт600:00+4з249694 0.0 1015176
03:00+5з2597100 0.4 1015371
06:00+5зсз269685 0.2 1016260
09:00+6з23889 0.2 1016259
12:00+9зюз24733 0.0 1016690
15:00+10юз35662 0.0 1016820
18:00+8ююз388093 0.0 1015354
21:00+9ююз4129288 0.0 1014459
7 октября, пт
пт700:00+9юз5139797 0.0 1012525
03:00+10зюз41295100 0.2 1012801
06:00+10з5119269 0.6 1013816
09:00+9з51184100 0.7 10161165
12:00+10зюз61278100 0.0 10171237
15:00+11з6117413 0.0 10181183
18:00+10з512780 0.0 1019763
21:00+8зюз513860 0.0 1021577
8 октября, сб
сб800:00+7зюз311935 0.0 1022335
03:00+6юз399730 0.0 1022240
06:00+6юз3109830 0.0 1022274
09:00+8юз4119098 0.0 1022369
12:00+11юз597380 0.0 1020669
15:00+13юз496768 0.0 10181026
18:00+11ююз41277100 0.0 1017593
21:00+10ююз51482100 0.0 1016674